User: anonymous   Login
Location: Feydey
(46.3431°N, 7.0106°E)
Time: 15:21:27
(UTC+00:00)
Language:

Cosmos 2237 Rocket - Orbit

View from above orbital plane
View from above orbital plane
View from above satellite
View from above satellite

Ground track
Ground track

The orbit data is extracted from the following two-line orbital elements,

1 22566U 93016B   21258.87922341  .00000216  00000-0  13592-3 0  9996
2 22566  71.0085  49.7588 0012388 289.0647  70.9134 14.14978215470752
Epoch (UTC): 15 September 2021 21:06:04
Eccentricity: 0.0012388
inclination: 71.0085°
perigee height: 833 km
apogee height: 851 km
right ascension of ascending node: 49.7588°
argument of perigee: 289.0647°
revolutions per day: 14.14978215
mean anomaly at epoch: 70.9134°
orbit number at epoch: 47075

The dashed part of the orbit path shows where the satellite is in the earth's shadow,  

DLR